This is the latest recevied weather packets stored in our database for station/object N7MLR. If no packets are shown the sender has not sent any weather packets the latest 10 day(s).
| Time | Temp. | Humidity | Pressure | Rain* | Wind** | Luminosity | Snow |
|---|---|---|---|---|---|---|---|
| 1777864352 | 15.56° C | 76% | 1017 hPa | 0 mm | - | 0 W/m² | - |
| 1777864047 | 15.56° C | 76% | 1017.1 hPa | 0 mm | - | 0 W/m² | - |
| 1777863745 | 16.11° C | 75% | 1017.1 hPa | 0 mm | - | 0 W/m² | - |
| 1777863441 | 16.11° C | 74% | 1017.2 hPa | 0 mm | - | 0 W/m² | - |
| 1777863138 | 16.11° C | 71% | 1017.1 hPa | 0 mm | - | 0 W/m² | - |
| 1777862835 | 16.11° C | 72% | 1017.1 hPa | 0 mm | - | 0 W/m² | - |
| 1777862531 | 16.11° C | 72% | 1017.2 hPa | 0 mm | - | 0 W/m² | - |
| 1777862228 | 16.67° C | 72% | 1017.2 hPa | 0 mm | - | 0 W/m² | - |
| 1777861924 | 16.67° C | 70% | 1017.2 hPa | 0 mm | - | 0 W/m² | - |
| 1777861621 | 16.67° C | 69% | 1017.2 hPa | 0 mm | - | 0 W/m² | - |
| 1777861316 | 16.67° C | 68% | 1017.2 hPa | 0 mm | - | 0 W/m² | - |
| 1777861015 | 17.22° C | 67% | 1017.2 hPa | 0 mm | - | 0 W/m² | - |
| 1777860711 | 17.22° C | 68% | 1017.1 hPa | 0 mm | - | 0 W/m² | - |
| 1777860408 | 17.22° C | 66% | 1017.1 hPa | 0 mm | - | 0 W/m² | - |
| 1777860104 | 17.78° C | 64% | 1017.1 hPa | 0 mm | - | 0 W/m² | - |
| 1777859801 | 18.33° C | 62% | 1017.2 hPa | 0 mm | - | 0 W/m² | - |
| 1777859497 | 18.33° C | 62% | 1017.3 hPa | 0 mm | - | 0 W/m² | - |
| 1777859193 | 18.89° C | 60% | 1016.9 hPa | 0 mm | - | 0 W/m² | - |
| 1777858890 | 18.89° C | 59% | 1016.9 hPa | 0 mm | - | 0 W/m² | - |
| 1777858588 | 19.44° C | 57% | 1017.1 hPa | 0 mm | - | 0 W/m² | - |
| 1777858285 | 19.44° C | 56% | 1016.6 hPa | 0 mm | - | 0 W/m² | - |
| 1777857982 | 19.44° C | 56% | 1016.6 hPa | 0 mm | - | 0 W/m² | - |
| 1777857680 | 19.44° C | 55% | 1016.9 hPa | 0 mm | - | 0 W/m² | - |
| 1777857376 | 20° C | 55% | 1017 hPa | 0 mm | - | 0 W/m² | - |
| 1777857073 | 20° C | 54% | 1016.7 hPa | 0 mm | - | 0 W/m² | - |
* Rain latest hour (hover to see other rain measurements)
** Current wind speed in m/s (hover to see current wind gust speed)